Voltar ao catálogo

QIANFAN-190

AtivoComunicaçõesPO
NORAD 69408·PAYLOAD·🇨🇳 China

Lançado Jun 5, 2026 de Wenchang Space Launch Site

Loading…

Próximas Passagens (próximas 24 horas)

TLE

AtualizadoSource: Space-Track

Época: Sep 14, 2026, 13:06 UTC

1 69408U 26125H   26257.54626715  .00000025  00000-0  19903-4 0  9994
2 69408  88.9868 270.9150 0001871  96.1004 264.0361 13.51033258 14016

Acompanhe QIANFAN-190 em tempo real com AllMySat

Download on the App Store